TimeCDT,TemperatureF,Dew PointF,Humidity,Sea Level PressureIn,VisibilityMPH,Wind Direction,Wind SpeedMPH,Gust SpeedMPH,PrecipitationIn,Events,Conditions,WindDirDegrees,DateUTC
12:53 AM,43.0,36.0,76,30.07,10.0,West,3.5,-,N/A,,Clear,260,2011-10-24 05:53:00
1:53 AM,41.0,35.1,79,30.08,10.0,WSW,4.6,-,N/A,,Clear,250,2011-10-24 06:53:00
2:53 AM,43.0,35.1,74,30.07,10.0,Calm,Calm,-,N/A,,Clear,0,2011-10-24 07:53:00
3:53 AM,37.9,33.1,83,30.08,10.0,SW,4.6,-,N/A,,Clear,230,2011-10-24 08:53:00
4:53 AM,42.1,35.1,76,30.07,10.0,Calm,Calm,-,N/A,,Clear,0,2011-10-24 09:53:00
5:53 AM,42.1,35.1,76,30.07,10.0,SSW,3.5,-,N/A,,Clear,200,2011-10-24 10:53:00
6:53 AM,43.0,35.1,74,30.08,10.0,SSW,5.8,-,N/A,,Clear,200,2011-10-24 11:53:00
7:53 AM,37.0,34.0,89,30.10,10.0,Calm,Calm,-,N/A,,Clear,0,2011-10-24 12:53:00
8:53 AM,45.0,39.0,80,30.11,10.0,South,3.5,-,N/A,,Clear,170,2011-10-24 13:53:00
9:53 AM,57.9,37.9,47,30.09,10.0,South,12.7,-,N/A,,Clear,180,2011-10-24 14:53:00
10:53 AM,63.0,37.9,40,30.06,10.0,SSE,11.5,-,N/A,,Clear,160,2011-10-24 15:53:00
11:53 AM,69.1,36.0,30,30.03,10.0,South,12.7,-,N/A,,Clear,170,2011-10-24 16:53:00
12:53 PM,69.1,37.0,31,29.99,10.0,SSE,15.0,19.6,N/A,,Clear,160,2011-10-24 17:53:00
1:53 PM,73.4,37.4,27,29.95,10.0,South,10.4,18.4,N/A,,Clear,170,2011-10-24 18:53:00
2:53 PM,73.9,37.0,26,29.89,10.0,SSE,12.7,-,N/A,,Clear,150,2011-10-24 19:53:00
3:53 PM,75.9,39.0,26,29.86,10.0,SSE,11.5,-,N/A,,Clear,160,2011-10-24 20:53:00
4:53 PM,79.0,39.9,25,29.83,10.0,South,13.8,-,N/A,,Clear,180,2011-10-24 21:53:00
5:53 PM,73.9,42.1,32,29.79,10.0,SE,8.1,-,N/A,,Clear,130,2011-10-24 22:53:00
6:53 PM,70.0,42.1,36,29.78,10.0,SSE,10.4,-,N/A,,Clear,160,2011-10-24 23:53:00
7:53 PM,66.9,41.0,39,29.80,10.0,South,8.1,-,N/A,,Clear,180,2011-10-25 00:53:00
8:53 PM,62.1,42.1,48,29.78,10.0,South,9.2,-,N/A,,Clear,190,2011-10-25 01:53:00
9:53 PM,60.1,42.1,51,29.77,10.0,South,9.2,-,N/A,,Clear,190,2011-10-25 02:53:00
10:53 PM,60.8,41.0,48,29.78,10.0,South,9.2,-,N/A,,Clear,190,2011-10-25 03:53:00
11:53 PM,63.0,39.0,41,29.73,10.0,South,11.5,-,N/A,,Clear,190,2011-10-25 04:53:00